Flag for Norway Weather past 2 weeks in Gjøvik, Norway

Now
33 °F

Chilly.


Feels Like: 33 °F
Forecast: 22 / 41 °F
Wind: 2 mph from North

Location: Lillehammer-Saetherengen

Current Time: Apr 2, 2015 at 12:39:16 AM

Latest Report: Apr 1, 2015 at 11:00 PM


Visibility: N/A

Pressure: 29.47 "Hg

Humidity: 60%

Dew point: 20 °F

Location of GjøvikLocation

Historic Weather in Gjøvik — Graph

°F

Gjøvik temperature yesterday

Maximum temperature yesterday: 42 °F (at 2:00 PM)
Minimum temperature yesterday: 23 °F (at 8:00 AM)
Average temperature yesterday: 33 °F

Past Weeks' High & Low Weather Summary

 TemperatureHumidityPressure
High56 °F (Mar 23, 3:00 PM)97% (Mar 19, 6:00 AM)30.65 "Hg (Mar 19, 6:00 AM)
Low22 °F (Mar 28, 8:00 AM)28% (Mar 21, 5:00 PM)28.97 "Hg (Mar 30, 12:00 AM)
Average33 °F76%29.76 "Hg
* Reported Mar 17 11:00 PM — Apr 1 11:00 PM, Gjøvik, Weather by CustomWeather, © 2015

Note: Actual official high and low records may vary slightly from our data, if they occured in-between our weather recording intervals... More about our weather records

Advertising

Gjøvik weather history for previous 24 hours

 ConditionsComfort  
Time TempWeatherWind HumidityBarometerVisibility
11:00 PM
Wed, Apr 1
33 °FChilly.2 mph60%29.47 "HgN/A
10:00 PM34 °FChilly.2 mph57%29.44 "HgN/A
9:00 PM37 °FChilly.3 mph51%29.41 "HgN/A
8:00 PM38 °FChilly.3 mph49%29.38 "HgN/A
7:00 PM40 °FQuite cool.2 mph47%29.35 "HgN/A
6:00 PM41 °FQuite cool.6 mph45%29.35 "HgN/A
5:00 PM42 °FQuite cool.3 mph46%29.32 "HgN/A
4:00 PM40 °FChilly.6 mph50%29.32 "HgN/A
3:00 PM41 °FQuite cool.6 mph45%29.29 "HgN/A
2:00 PM42 °FQuite cool.5 mph44%29.29 "HgN/A
1:00 PM39 °FChilly.3 mph47%29.26 "HgN/A
12:00 PM35 °FChilly.3 mph52%29.26 "HgN/A
11:00 AM32 °FChilly.3 mph60%29.26 "HgN/A
10:00 AM28 °FChilly.3 mph69%29.23 "HgN/A
9:00 AM25 °FChilly.2 mph73%29.23 "HgN/A
8:00 AM23 °FCold.2 mph77%29.23 "HgN/A
7:00 AM24 °FCold.2 mph75%29.21 "HgN/A
6:00 AM25 °FCold.2 mph75%29.18 "HgN/A
5:00 AM26 °FChilly.2 mph75%29.18 "HgN/A
4:00 AM27 °FChilly.2 mph73%29.15 "HgN/A
3:00 AM28 °FChilly.2 mph72%29.15 "HgN/A
2:00 AM29 °FChilly.2 mph68%29.15 "HgN/A
1:00 AM29 °FChilly.2 mph71%29.12 "HgN/A
12:00 AM29 °FChilly.No wind73%29.12 "HgN/A
Weather by CustomWeather, © 2015

See weather overviewHow to use our weather pages